| time (UTC) | temp F | wind direction | speed MPH | gust MPH | rain 1hr in | rain 24hr in | rain mn in | humidity % | barometer mb |
| 20260510090953 | 51 | 0.0 | 0.0 | 0.00 | 0.40 | 0.00 | 98 | 1011.1 | |
| 20260510085937 | 51 | 0.0 | 0.0 | 0.00 | 0.40 | 0.00 | 98 | 1011.1 | |
| 20260510084955 | 52 | 0.0 | 0.0 | 0.00 | 0.40 | 0.00 | 98 | 1011.0 | |
| 20260510083941 | 52 | 0.0 | 1.0 | 0.00 | 0.40 | 0.00 | 98 | 1011.1 | |
| 20260510083019 | 52 | 0.0 | 1.0 | 0.00 | 0.40 | 0.00 | 98 | 1011.1 | |
| 20260510082005 | 52 | 0.0 | 0.0 | 0.00 | 0.40 | 0.00 | 98 | 1011.4 | |
| 20260510081023 | 52 | 0.0 | 1.0 | 0.00 | 0.40 | 0.00 | 98 | 1011.2 | |
| 20260510075949 | 52 | 323 | 0.0 | 1.0 | 0.00 | 0.40 | 0.00 | 98 | 1011.3 |
| 20260510074934 | 52 | 0.0 | 0.0 | 0.00 | 0.40 | 0.00 | 98 | 1011.3 | |
| 20260510073952 | 52 | 0.0 | 0.0 | 0.00 | 0.40 | 0.00 | 98 | 1011.1 | |
| 20260510072936 | 52 | 282 | 0.0 | 1.0 | 0.00 | 0.40 | 0.00 | 98 | 1011.0 |
| 20260510071955 | 52 | 0.0 | 0.0 | 0.00 | 0.40 | 0.00 | 98 | 1010.8 | |
| 20260510071021 | 52 | 0.0 | 0.0 | 0.00 | 0.40 | 0.00 | 98 | 1010.5 | |
| 20260510065955 | 52 | 0.0 | 0.0 | 0.00 | 0.40 | 0.00 | 98 | 1010.4 | |
| 20260510064939 | 52 | 308 | 0.0 | 1.0 | 0.00 | 0.40 | 0.00 | 98 | 1010.6 |
| 20260510063958 | 52 | 311 | 0.0 | 1.0 | 0.00 | 0.40 | 0.00 | 98 | 1011.0 |
| 20260510063005 | 52 | 309 | 1.0 | 2.0 | 0.00 | 0.40 | 0.00 | 98 | 1010.9 |
| 20260510062001 | 52 | 0.0 | 1.0 | 0.00 | 0.40 | 0.00 | 98 | 1010.9 | |
| 20260510060946 | 51 | 309 | 1.0 | 1.0 | 0.00 | 0.40 | 0.00 | 98 | 1010.8 |
| 20260510060005 | 51 | 324 | 0.0 | 1.0 | 0.00 | 0.40 | 0.00 | 98 | 1010.8 |
| 20260510054949 | 51 | 0.0 | 0.0 | 0.00 | 0.40 | 0.00 | 98 | 1010.8 | |
| 20260510054006 | 51 | 0.0 | 0.0 | 0.00 | 0.40 | 0.00 | 98 | 1010.6 | |
| 20260510052951 | 51 | 0.0 | 0.0 | 0.00 | 0.40 | 0.00 | 98 | 1010.6 | |
| 20260510052008 | 51 | 315 | 0.0 | 1.0 | 0.00 | 0.40 | 0.00 | 98 | 1010.7 |
| 20260510050954 | 51 | 0.0 | 0.0 | 0.00 | 0.40 | 0.00 | 98 | 1010.9 | |
| 20260510050031 | 51 | 0.0 | 0.0 | 0.00 | 0.40 | 0.00 | 98 | 1010.9 | |
| 20260510044956 | 51 | 0.0 | 0.0 | 0.00 | 0.40 | 0.00 | 98 | 1010.9 | |
| 20260510043942 | 51 | 0.0 | 0.0 | 0.01 | 0.40 | 0.00 | 98 | 1011.0 | |
| 20260510043002 | 51 | 0.0 | 0.0 | 0.01 | 0.40 | 0.00 | 98 | 1011.1 | |
| 20260510041946 | 51 | 0.0 | 0.0 | 0.01 | 0.40 | 0.00 | 98 | 1010.9 | |
| 20260510041006 | 51 | 0.0 | 0.0 | 0.01 | 0.40 | 0.00 | 98 | 1011.1 | |
| 20260510035951 | 51 | 0.0 | 0.0 | 0.01 | 0.40 | 0.40 | 97 | 1011.0 | |
| 20260510035009 | 51 | 0.0 | 0.0 | 0.01 | 0.40 | 0.40 | 97 | 1010.8 | |
| 20260510033954 | 51 | 0.0 | 0.0 | 0.01 | 0.39 | 0.39 | 97 | 1011.0 | |
| 20260510033012 | 51 | 0.0 | 0.0 | 0.01 | 0.39 | 0.39 | 97 | 1011.1 | |
| 20260510031958 | 51 | 0.0 | 0.0 | 0.01 | 0.39 | 0.39 | 97 | 1011.2 | |
| 20260510031056 | 51 | 0.0 | 0.0 | 0.01 | 0.39 | 0.39 | 97 | 1011.2 | |
| 20260510030001 | 51 | 330 | 0.0 | 1.0 | 0.01 | 0.39 | 0.39 | 97 | 1011.6 |
| 20260510024946 | 51 | 0.0 | 0.0 | 0.01 | 0.39 | 0.39 | 97 | 1011.4 | |
| 20260510024004 | 51 | 0.0 | 0.0 | 0.00 | 0.38 | 0.38 | 97 | 1011.7 | |
| 20260510022949 | 51 | 0.0 | 0.0 | 0.00 | 0.38 | 0.38 | 97 | 1011.8 | |
| 20260510022008 | 51 | 326 | 0.0 | 1.0 | 0.00 | 0.38 | 0.38 | 97 | 1011.7 |
| 20260510020954 | 51 | 0.0 | 0.0 | 0.00 | 0.38 | 0.38 | 97 | 1012.0 | |
| 20260510020012 | 52 | 0.0 | 0.0 | 0.00 | 0.38 | 0.38 | 97 | 1012.1 | |
| 20260510014957 | 52 | 332 | 0.0 | 1.0 | 0.00 | 0.38 | 0.38 | 97 | 1012.1 |
| 20260510014015 | 52 | 283 | 2.0 | 3.0 | 0.00 | 0.38 | 0.38 | 97 | 1012.2 |
| 20260510013001 | 52 | 0.0 | 2.0 | 0.00 | 0.38 | 0.38 | 97 | 1012.2 | |
| 20260510012019 | 52 | 0.0 | 0.0 | 0.00 | 0.38 | 0.38 | 97 | 1012.2 | |
| 20260510011005 | 53 | 0.0 | 1.0 | 0.00 | 0.38 | 0.38 | 97 | 1012.1 | |
| 20260510005949 | 53 | 322 | 1.0 | 2.0 | 0.00 | 0.38 | 0.38 | 97 | 1012.4 |
| 20260510005008 | 53 | 305 | 2.0 | 3.0 | 0.01 | 0.38 | 0.38 | 97 | 1012.1 |
| 20260510003953 | 54 | 322 | 0.0 | 1.0 | 0.02 | 0.38 | 0.38 | 97 | 1012.1 |
| 20260510003011 | 54 | 0.0 | 0.0 | 0.04 | 0.38 | 0.38 | 97 | 1012.2 | |
| 20260510002017 | 54 | 0.0 | 1.0 | 0.06 | 0.38 | 0.38 | 97 | 1012.3 | |
| 20260510001016 | 54 | 0.0 | 0.0 | 0.08 | 0.38 | 0.38 | 97 | 1012.1 | |
| 20260510000000 | 54 | 0.0 | 1.0 | 0.09 | 0.38 | 0.38 | 97 | 1012.2 | |
| 20260509235039 | 54 | 296 | 1.0 | 2.0 | 0.10 | 0.37 | 0.37 | 96 | 1012.2 |
| 20260509234004 | 54 | 0.0 | 0.0 | 0.12 | 0.36 | 0.36 | 96 | 1012.2 | |
| 20260509233023 | 54 | 314 | 1.0 | 2.0 | 0.12 | 0.34 | 0.34 | 96 | 1012.2 |
| 20260509232008 | 54 | 300 | 2.0 | 3.0 | 0.13 | 0.32 | 0.32 | 96 | 1012.3 |
| 20260509230921 | 54 | 273 | 2.0 | 2.0 | 0.13 | 0.30 | 0.30 | 96 | 1012.0 |
| 20260509230012 | 55 | 299 | 1.0 | 2.0 | 0.15 | 0.29 | 0.29 | 96 | 1012.0 |
| 20260509224957 | 55 | 285 | 1.0 | 2.0 | 0.15 | 0.27 | 0.27 | 96 | 1011.8 |
| 20260509224015 | 55 | 296 | 1.0 | 2.0 | 0.12 | 0.24 | 0.24 | 96 | 1011.8 |
| 20260509222958 | 55 | 0.0 | 0.0 | 0.12 | 0.22 | 0.22 | 95 | 1011.6 | |
| 20260509222016 | 55 | 317 | 0.0 | 1.0 | 0.11 | 0.19 | 0.19 | 95 | 1011.6 |
| 20260509221000 | 55 | 320 | 0.0 | 2.0 | 0.11 | 0.17 | 0.17 | 95 | 1011.2 |
| 20260509220019 | 55 | 319 | 1.0 | 1.0 | 0.08 | 0.14 | 0.14 | 94 | 1011.4 |
| 20260509214022 | 56 | 313 | 1.0 | 2.0 | 0.07 | 0.12 | 0.12 | 92 | 1011.3 |
| 20260509213006 | 56 | 299 | 1.0 | 2.0 | 0.05 | 0.10 | 0.10 | 91 | 1011.5 |
| 20260509212045 | 57 | 307 | 2.0 | 5.0 | 0.03 | 0.08 | 0.08 | 87 | 1011.1 |
| 20260509211009 | 58 | 322 | 1.0 | 5.0 | 0.01 | 0.06 | 0.06 | 85 | 1011.0 |
| 20260509210029 | 58 | 276 | 2.0 | 3.0 | 0.01 | 0.06 | 0.06 | 84 | 1011.0 |
| 20260509205014 | 57 | 304 | 1.0 | 5.0 | 0.02 | 0.06 | 0.06 | 85 | 1010.7 |
| 20260509204000 | 58 | 302 | 1.0 | 2.0 | 0.01 | 0.05 | 0.05 | 81 | 1011.0 |
| 20260509203039 | 59 | 336 | 1.0 | 3.0 | 0.01 | 0.05 | 0.05 | 78 | 1010.9 |
| 20260509201931 | 59 | 268 | 2.0 | 3.0 | 0.01 | 0.05 | 0.05 | 76 | 1011.0 |
| 20260509200937 | 59 | 285 | 2.0 | 6.0 | 0.01 | 0.05 | 0.05 | 78 | 1010.8 |
| 20260509195903 | 58 | 316 | 1.0 | 2.0 | 0.01 | 0.05 | 0.05 | 82 | 1010.9 |
| 20260509194921 | 58 | 0.0 | 1.0 | 0.00 | 0.04 | 0.04 | 82 | 1011.0 | |
| 20260509193907 | 59 | 0.0 | 2.0 | 0.00 | 0.04 | 0.04 | 79 | 1011.1 | |
| 20260509192925 | 59 | 313 | 2.0 | 3.0 | 0.00 | 0.04 | 0.04 | 77 | 1011.2 |
| 20260509191911 | 59 | 313 | 0.0 | 2.0 | 0.00 | 0.04 | 0.04 | 77 | 1011.3 |
| 20260509190930 | 59 | 314 | 0.0 | 1.0 | 0.00 | 0.04 | 0.04 | 78 | 1011.4 |
| 20260509185916 | 59 | 316 | 1.0 | 2.0 | 0.00 | 0.04 | 0.04 | 77 | 1011.3 |
| 20260509184954 | 58 | 319 | 0.0 | 1.0 | 0.00 | 0.04 | 0.04 | 78 | 1011.4 |
| 20260509183920 | 58 | 0.0 | 1.0 | 0.01 | 0.04 | 0.04 | 79 | 1011.4 | |
| 20260509182905 | 58 | 0.0 | 0.0 | 0.01 | 0.04 | 0.04 | 80 | 1011.3 | |
| 20260509181924 | 58 | 315 | 0.0 | 2.0 | 0.01 | 0.04 | 0.04 | 79 | 1011.6 |
| 20260509180908 | 57 | 0.0 | 0.0 | 0.01 | 0.04 | 0.04 | 81 | 1011.3 | |
| 20260509175927 | 56 | 298 | 1.0 | 2.0 | 0.01 | 0.04 | 0.04 | 81 | 1011.9 |
| 20260509174911 | 57 | 323 | 0.0 | 2.0 | 0.01 | 0.04 | 0.04 | 81 | 1012.0 |
| 20260509173929 | 58 | 290 | 2.0 | 7.0 | 0.00 | 0.03 | 0.03 | 78 | 1012.1 |
| 20260509172914 | 59 | 311 | 2.0 | 2.0 | 0.00 | 0.03 | 0.03 | 76 | 1012.1 |
| 20260509171952 | 59 | 315 | 0.0 | 3.0 | 0.00 | 0.03 | 0.03 | 73 | 1012.1 |
| 20260509170918 | 59 | 291 | 1.0 | 3.0 | 0.00 | 0.03 | 0.03 | 73 | 1012.2 |
| 20260509165956 | 59 | 290 | 2.0 | 5.0 | 0.00 | 0.03 | 0.03 | 73 | 1011.7 |
| 20260509164920 | 58 | 313 | 0.0 | 1.0 | 0.00 | 0.03 | 0.03 | 76 | 1012.2 |
| 20260509163939 | 58 | 315 | 0.0 | 1.0 | 0.00 | 0.03 | 0.03 | 77 | 1012.1 |
| 20260509162922 | 58 | 319 | 1.0 | 2.0 | 0.00 | 0.03 | 0.03 | 75 | 1012.3 |
| 20260509161941 | 57 | 319 | 1.0 | 2.0 | 0.00 | 0.03 | 0.03 | 77 | 1012.4 |
| 20260509160926 | 57 | 0.0 | 1.0 | 0.00 | 0.03 | 0.03 | 79 | 1012.4 | |
| 20260509155944 | 56 | 0.0 | 1.0 | 0.00 | 0.03 | 0.03 | 79 | 1012.6 | |
| 20260509154929 | 57 | 346 | 1.0 | 3.0 | 0.00 | 0.03 | 0.03 | 78 | 1012.9 |
| 20260509153914 | 56 | 338 | 0.0 | 2.0 | 0.00 | 0.03 | 0.03 | 80 | 1012.9 |
| 20260509152930 | 55 | 320 | 0.0 | 2.0 | 0.00 | 0.03 | 0.03 | 80 | 1013.1 |
| 20260509151914 | 55 | 320 | 0.0 | 1.0 | 0.00 | 0.03 | 0.03 | 79 | 1013.0 |
| 20260509150932 | 55 | 323 | 1.0 | 3.0 | 0.00 | 0.03 | 0.03 | 78 | 1013.1 |
| 20260509145916 | 53 | 353 | 0.0 | 1.0 | 0.00 | 0.03 | 0.03 | 78 | 1012.9 |
| 20260509144934 | 53 | 0.0 | 5.0 | 0.00 | 0.03 | 0.03 | 79 | 1013.2 | |
| 20260509143917 | 52 | 0.0 | 0.0 | 0.00 | 0.03 | 0.03 | 80 | 1013.3 | |
| 20260509142957 | 51 | 358 | 0.0 | 1.0 | 0.00 | 0.03 | 0.03 | 82 | 1013.2 |
| 20260509141940 | 51 | 0.0 | 0.0 | 0.00 | 0.03 | 0.03 | 88 | 1013.7 | |
| 20260509140939 | 49 | 0.0 | 0.0 | 0.00 | 0.03 | 0.03 | 90 | 1013.7 | |
| 20260509135924 | 48 | 0.0 | 0.0 | 0.00 | 0.03 | 0.03 | 92 | 1013.9 | |
| 20260509134942 | 49 | 0.0 | 0.0 | 0.00 | 0.03 | 0.03 | 94 | 1013.9 | |
| 20260509133926 | 48 | 0.0 | 0.0 | 0.00 | 0.03 | 0.03 | 95 | 1014.0 | |
| 20260509132944 | 48 | 0.0 | 0.0 | 0.00 | 0.03 | 0.03 | 95 | 1014.1 | |
| 20260509131949 | 46 | 0.0 | 0.0 | 0.01 | 0.03 | 0.03 | 95 | 1014.2 | |
| 20260509130949 | 45 | 0.0 | 0.0 | 0.01 | 0.03 | 0.03 | 95 | 1014.2 | |
| 20260509125934 | 45 | 0.0 | 0.0 | 0.01 | 0.03 | 0.03 | 95 | 1014.2 | |
| 20260509124951 | 44 | 0.0 | 0.0 | 0.02 | 0.03 | 0.03 | 95 | 1014.0 | |
| 20260509123956 | 44 | 0.0 | 0.0 | 0.02 | 0.03 | 0.03 | 95 | 1014.1 | |
| 20260509122941 | 44 | 0.0 | 0.0 | 0.02 | 0.03 | 0.03 | 94 | 1014.2 | |
| 20260509121936 | 43 | 0.0 | 0.0 | 0.02 | 0.02 | 0.02 | 94 | 1014.2 | |
| 20260509120921 | 43 | 0.0 | 0.0 | 0.02 | 0.02 | 0.02 | 94 | 1014.5 | |
| 20260509115939 | 42 | 0.0 | 0.0 | 0.02 | 0.02 | 0.02 | 94 | 1014.5 | |
| 20260509114922 | 42 | 0.0 | 0.0 | 0.01 | 0.01 | 0.01 | 93 | 1014.6 | |
| 20260509113940 | 42 | 0.0 | 0.0 | 0.01 | 0.01 | 0.01 | 93 | 1014.6 | |
| 20260509113006 | 42 | 0.0 | 1.0 | 0.01 | 0.01 | 0.01 | 92 | 1014.7 | |
| 20260509112006 | 41 | 0.0 | 1.0 | 0.00 | 0.00 | 0.00 | 91 | 1014.8 | |
| 20260509110930 | 41 | 0.0 | 1.0 | 0.00 | 0.00 | 0.00 | 91 | 1014.9 | |
| 20260509105948 | 41 | 0.0 | 0.0 | 0.00 | 0.00 | 0.00 | 90 | 1014.6 | |
| 20260509104933 | 41 | 4 | 1.0 | 2.0 | 0.00 | 0.00 | 0.00 | 90 | 1014.4 |
| 20260509103952 | 41 | 320 | 1.0 | 1.0 | 0.00 | 0.00 | 0.00 | 89 | 1014.4 |
| 20260509102937 | 40 | 11 | 1.0 | 2.0 | 0.00 | 0.00 | 0.00 | 89 | 1014.2 |
| 20260509101956 | 40 | 0.0 | 0.0 | 0.00 | 0.00 | 0.00 | 89 | 1013.9 | |
| 20260509101001 | 40 | 0.0 | 0.0 | 0.00 | 0.00 | 0.00 | 89 | 1013.7 | |
| 20260509100006 | 40 | 0.0 | 0.0 | 0.00 | 0.00 | 0.00 | 89 | 1013.6 | |
| 20260509094946 | 40 | 0.0 | 0.0 | 0.00 | 0.00 | 0.00 | 89 | 1013.5 | |
| 20260509093950 | 39 | 0.0 | 0.0 | 0.00 | 0.00 | 0.00 | 89 | 1013.4 | |
| 20260509092948 | 39 | 0.0 | 0.0 | 0.00 | 0.00 | 0.00 | 89 | 1013.4 | |
| 20260509091931 | 39 | 0.0 | 0.0 | 0.00 | 0.00 | 0.00 | 90 | 1013.4 |